Location: Ahausen
(50.4985°N, 8.2722°E)
Time: 01:35:13
(UTC+00:00)

Okean 2 - Pass Details

Date: 18 September 2020
Orbit: 559 x 577 km, 82.5° (Epoch: 23 October)

Event Time Altitude Azimuth Distance (km) Brightness Sun altitude
Rises 18:27:13 0° 346° (NNW) 2,806 7.3 -9.3°
Reaches altitude 10° 18:29:27 10° 342° (NNW) 1,901 6.5 -9.7°
Maximum altitude 18:33:33 55° 265° (W) 701 4.2 -10.3°
Drops below altitude 10° 18:37:36 10° 188° (S) 1,879 6.0 -10.9°
Sets 18:39:47 0° 184° (S) 2,770 6.8 -11.3°
